Location: *
(53.9002°N, 27.5624°E)
Time: 15:38:25
(UTC+00:00)

Cosmos 2016 Rocket - Pass Details

Date: 12 November 2019
Orbit: 947 x 1000 km, 83.0° (Epoch: 10 December)

Event Time Altitude Azimuth Distance (km) Brightness Sun altitude
Rises 14:51:53 0° 349° (NNW) 3,732 6.9 -5.5°
Reaches altitude 10° 14:54:25 10° 350° (N) 2,782 6.3 -5.9°
Maximum altitude 15:00:51 85° 80° (E) 1,012 4.1 -6.7°
Drops below altitude 10° 15:07:14 10° 169° (S) 2,762 6.5 -7.6°
Sets 15:09:44 0° 170° (S) 3,704 7.2 -8.0°
